Hourly Weather Roundup
Issued by NWS Central Illinois

Home | Current Version | Previous Version | Text Only | Print | Product List | Glossary On
Versions: 1 2 3 4 5 6 7 8 9 10 11 12 13 14 15 16 17 18 19 20 21 22 23 24 25 26 27 28 29 30 31 32 33 34 35 36 37 38 39 40 41 42 43 44 45 46 47 48 49 50
000
NZUS43 KILX 200510
HWRILX

AREA WEATHER ROUNDUP
NATIONAL WEATHER SERVICE, LINCOLN IL
1100 PM CST SUN FEB 19 2017


CITY           SKY/WX    TMP DP  RH WIND       PRES   REMARKS
BLOOMINGTON    PTCLDY    49  47  93 SE12      30.09F FOG
CHAMPAIGN      FOG       44  42  93 E6        30.11F VSB 1
DECATUR        FOG       47  46  97 SE7       30.09F VSB 1/4
EFFINGHAM      FOG       50  50 100 E6        30.13F VSB 1/4
FLORA          DRZL/FOG  50  49  97 E5        30.12F VSB 1/4
GALESBURG      CLOUDY    55  49  78 SE5       30.02F
JACKSONVILLE   PTCLDY    55  51  84 SE8       30.05S
LACON          CLOUDY    53  47  82 S3        30.06F
LAWRENCEVILLE  FOG       41  40  96 CALM      30.16R VSB<1/4
LITCHFIELD     PTCLDY    51  49  96 SE8       30.08S FOG
$$


CITY           SKY/WX    TMP DP  RH WIND       PRES   REMARKS
LINCOLN        CLOUDY    49  48  98 SE5       30.08S FOG
MACOMB         MOCLDY    54  49  82 SE10      30.04S
MATTOON        FOG       49  49 100 S12       30.11F VSB 3/4
MT CARMEL AP   FOG       39  38  97 E3        30.15S VSB<1/4
OLNEY-NOBLE AP RAIN      45  45 100 E5        30.13F VSB<1/4
PARIS          CLOUDY    44  44  99 SE3       30.15S FOG
PEORIA         CLOUDY    53  49  86 SE6       30.07S
PONTIAC        CLOUDY    49  48  95 SE6       30.10F FOG
RANTOUL        MOCLDY    48  47  97 SE5       30.12F FOG
SPRINGFIELD    PTCLDY    53  50  89 S12       30.07S FOG
TAYLORVILLE    FOG       49  48  98 SE12      30.08S VSB 1
$$

...REGIONAL REPORTS...


CITY           SKY/WX    TMP DP  RH WIND       PRES   REMARKS
CHICAGO O`HARE CLOUDY    46  30  53 SE3       30.11R
KANKAKEE       PTCLDY    44  39  82 CALM      30.13R
MOLINE         CLOUDY    56  45  66 S7        30.00F
MOUNT STERLING PTCLDY    55  50  83 SE12      30.02R
MOUNT VERNON   CLEAR     48  48 100 E3        30.11F FOG
PITTSFIELD     PTCLDY    56  52  85 SE9       30.03S
QUINCY         PTCLDY    58  51  78 SE12      30.00S
ROCKFORD       PTCLDY    48  39  71 SE3       30.09S
$$


CITY           SKY/WX    TMP DP  RH WIND       PRES   REMARKS
BURLINGTON     PTCLDY    57  50  77 S8        29.99S
CEDAR RAPIDS   CLOUDY    55  47  74 SE10      29.95S
DES MOINES     MOCLDY    59  46  62 SE10      29.89S
KIRKSVILLE     PTCLDY    58  49  72 SE9       29.96S
OTTUMWA        CLOUDY    61  47  59 S17       29.93S
ST LOUIS       CLOUDY    60  52  74 SE10      30.06S
$$


CITY           SKY/WX    TMP DP  RH WIND       PRES   REMARKS
TERRE HAUTE    FOG       41  39  93 CALM      30.16R VSB 1/2
EVANSVILLE     FOG       45  44  97 NE5       30.15S VSB 1/4
INDIANAPOLIS   CLEAR     48  45  89 S8        30.16R
LAFAYETTE      CLEAR     43  40  89 CALM      30.14R
MADISON        CLOUDY    47  34  60 SE3       30.06S
MILWAUKEE      CLOUDY    39  32  76 CALM      30.13R
$$





USA.gov is the U.S. government's official web portal to all federal, state and local government web resources and services.